Content
SEND FEEDBACK

Daily
Averages
Monthly
Summary
Hungary

NAGYKANIZSA, HUNGARY


Home > Europe > Hungary
Elevation: 462 feet     Latitude: 46 27N     Longitude: 016 59E

WEATHER
 
SELECT A DAY
Number of Records: 57,353;   Date Range: 2/20/97 - 8/25/14
 
SHARE

PRINT THIS DATA

[ ← Previous Day ]
WEATHER ALMANAC - FEBRUARY 16, 2013
[ Next Day → ]
[ °C ]   °F
Weather ElementAverageHighLow
Temperature27.5 °F37.4 °F (11:35 am) (5:45 am)
Dewpoint25 °F32 °F (12:45 am) (7:00 pm)
Humidity89.8 %100 % (12:45 am)70 % (3:15 pm)
Wind Speed4.2 mph15.7 mph (1:15 pm)
Weather ElementAverage
Visibility2.1 mi
Wind DirectionSSW (206.7 °)

Weather ElementTotal
Precipitation---
Heating Degree Days46.3 (Base 65)
Averaged from 59 records on February 16, 2013
WEATHER CONDITIONS BREAKOUT
WIND DIRECTION BREAKOUT
WEATHER BY HOUR - FEBRUARY 16, 2013
[ °C ]   °F
Local TimeTemperatureDewpointHumidityBarometerVisibilityWind DirectionWind SpeedGust SpeedPrecipitationEventsConditions
12:45 AM32.0 °F32.0 °F100 %30.15 in0.4 miCalmFogFog
1:15 AM32.0 °F32.0 °F100 %30.15 in0.4 miSouth (170°)2.2 mphFogFog
1:24 AM30.2 °F30.2 °F100 %30.15 in0.2 miCalmFogFog
1:45 AM30.2 °F30.2 °F100 %30.15 in0.2 miCalmFogFog
2:15 AM30.2 °F30.2 °F100 %30.15 in0.2 miWNW (300°)2.2 mphFogFog
2:36 AM32.0 °F32.0 °F100 %30.15 in0.2 miWest (270°)2.2 mphFogFog
2:45 AM32.0 °F32.0 °F100 %30.15 in0.2 miWest (270°)2.2 mphFogFog
3:15 AM30.2 °F30.2 °F100 %30.15 in0.2 miCalmFogFog
3:45 AM30.2 °F30.2 °F100 %30.15 in0.2 miCalmFogFog
4:15 AM30.2 °F30.2 °F100 %30.15 in0.2 miCalmFogFog
4:45 AM30.2 °F30.2 °F100 %30.15 in0.2 miCalmFogFog
5:15 AM30.2 °F30.2 °F100 %30.15 in0.2 miCalmFogFog
5:23 AM30.2 °F30.2 °F100 %30.15 in0.2 miCalmFogFog
5:45 AM0.0 °F0.0 °F0.0 mi6.7 (2013°)0.00 inFog340
5:53 AM30.2 °F30.2 °F100 %30.15 in0.2 miCalmFogFog
6:07 AM30.2 °F30.2 °F100 %30.15 in0.4 miENE (60°)2.2 mphFogFog
6:15 AM30.2 °F30.2 °F100 %30.15 in0.5 miNE (50°)2.2 mphFogFog
6:29 AM30.2 °F30.2 °F100 %30.18 in0.6 miEast (80°)2.2 mphMostly Cloudy
6:35 AM0.0 °F0.0 °F1.9 miVariable4.5 mphMostly Cloudy
6:45 AM30.2 °F30.2 °F100 %30.18 in0.6 miENE (70°)2.2 mphMostly Cloudy
7:00 AM0.0 °F0.0 °F1.9 miNNW (340°)6.7 mphMostly Cloudy
7:01 AM32.0 °F32.0 °F100 %30.18 in0.9 miNE (40°)4.5 mphMostly Cloudy
7:15 AM33.8 °F30.2 °F87 %30.18 in1.2 miNNE (20°)6.7 mphMostly Cloudy
7:29 AM32.0 °F30.2 °F93 %30.18 in1.9 miNNE (20°)6.7 mphMostly Cloudy
7:45 AM32.0 °F30.2 °F93 %30.18 in1.9 miNNE (20°)6.7 mphMostly Cloudy
8:15 AM32.0 °F30.2 °F93 %30.18 in1.9 miENE (60°)2.2 mphMostly Cloudy
8:45 AM0.0 °F0.0 °F1.9 miNorth (360°)6.7 mphMostly Cloudy
9:15 AM33.8 °F28.4 °F81 %30.18 in2.5 miENE (70°)4.5 mphMostly Cloudy
9:45 AM35.6 °F28.4 °F75 %30.21 in2.5 miNE (50°)4.5 mphMostly Cloudy
10:15 AM35.6 °F30.2 °F81 %30.21 in2.5 miNorth (360°)6.7 mphMostly Cloudy
10:45 AM35.6 °F30.2 °F81 %30.21 in2.5 miNorth (350°)6.7 mphMostly Cloudy
11:15 AM35.6 °F30.2 °F81 %30.21 in2.5 miNNW (340°)6.7 mphMostly Cloudy
11:35 AM37.4 °F30.2 °F75 %30.21 in3.7 miNorth (350°)11.2 mph
11:45 AM0.0 °F0.0 °F3.7 miNorth (360°)6.7 mphMostly Cloudy
12:15 PM37.4 °F30.2 °F75 %30.21 in3.7 miNNW (340°)8.9 mph
12:45 PM35.6 °F30.2 °F81 %30.18 in3.7 miNNW (340°)11.2 mph
1:15 PM37.4 °F30.2 °F75 %30.18 in3.7 miNNW (340°)15.7 mph
1:45 PM37.4 °F30.2 °F75 %30.18 in3.7 miNNW (340°)13.4 mph
2:15 PM37.4 °F30.2 °F75 %30.18 in3.7 miNorth (350°)8.9 mph
2:45 PM0.0 °F0.0 °F3.7 miNorth (360°)6.7 mphMostly Cloudy
3:15 PM37.4 °F28.4 °F70 %30.18 in3.7 miNorth (350°)8.9 mph
3:45 PM35.6 °F28.4 °F75 %30.18 in3.7 miNorth (350°)8.9 mph
4:15 PM35.6 °F28.4 °F75 %30.18 in3.7 miNNW (340°)6.7 mph
4:45 PM35.6 °F28.4 °F75 %30.18 in3.7 miNNW (340°)6.7 mph
5:15 PM35.6 °F28.4 °F75 %30.18 in3.7 miNorth (350°)4.5 mph
5:45 PM0.0 °F0.0 °F3.7 miNorth (360°)6.7 mphMostly Cloudy
6:15 PM30.2 °F26.6 °F86 %30.18 in3.7 miWNW (290°)2.2 mphMostly Cloudy
6:45 PM33.8 °F28.4 °F81 %30.18 in3.7 miWNW (290°)2.2 mphMostly Cloudy
7:15 PM32.0 °F28.4 °F87 %30.18 in3.7 miWest (280°)4.5 mphMostly Cloudy
7:45 PM33.8 °F28.4 °F81 %30.18 in3.7 miWNW (290°)2.2 mphMostly Cloudy
8:15 PM32.0 °F26.6 °F80 %30.18 in3.7 miCalmMostly Cloudy
8:45 PM0.0 °F0.0 °F3.7 miVariable4.5 mphMostly Cloudy
9:15 PM30.2 °F26.6 °F86 %30.18 in3.7 miCalmMostly Cloudy
9:45 PM28.4 °F28.4 °F100 %30.18 in3.7 miCalm
10:00 PM26.6 °F26.6 °F100 %30.18 in1.9 miSSW (210°)2.2 mphMostly Cloudy
10:15 PM26.6 °F26.6 °F100 %30.18 in1.9 miSW (230°)2.2 mphMostly Cloudy
10:45 PM28.4 °F28.4 °F100 %30.18 in1.9 miSW (230°)2.2 mphMostly Cloudy
11:15 PM26.6 °F26.6 °F100 %30.18 in1.9 miSouth (190°)2.2 mphMostly Cloudy
11:45 PM0.0 °F0.0 °F3.7 miNorthMostly Cloudy
Hourly data recorded from LHSM, located miles away from Nagykanizsa, Hungary







STORIES FROM OUR PARTNERS